Location: Auckland
(36.8500°S, 174.7800°E)
Time: 23:24:16
(UTC+12:00)

ISS - Visible Passes

Search period start: 19 August 2018 00:00
Search period end: 29 August 2018 00:00
Orbit: 401 x 409 km, 51.6° (Epoch: 19 August)

Date Brightness Start Highest point End Pass type
(mag) Time Alt. Az. Time Alt. Az. Time Alt. Az.
19 Aug -1.0 04:51:30 14° NE 04:51:30 14° NE 04:52:01 10° NE visible
21 Aug -1.2 19:39:56 10° NNW 19:40:26 13° NNW 19:40:26 13° NNW visible
22 Aug -1.9 18:48:59 10° NNE 18:51:04 16° NE 18:51:19 15° ENE visible
22 Aug -0.3 20:24:03 10° WNW 20:24:03 10° WNW 20:24:03 10° WNW visible
23 Aug -3.6 19:31:52 10° NW 19:34:50 69° NW 19:34:50 69° NW visible
24 Aug -3.2 18:40:04 10° NNW 18:43:12 41° NE 18:45:29 17° ESE visible
24 Aug -0.7 20:17:08 10° W 20:18:12 16° WSW 20:18:12 16° WSW visible
25 Aug -2.4 19:24:30 10° WNW 19:27:36 36° SW 19:28:44 27° S visible
26 Aug -3.5 18:32:09 10° NW 18:35:28 70° SW 18:38:49 10° SE visible
26 Aug -0.7 20:10:50 10° SW 20:11:50 12° SW 20:11:50 12° SW visible
27 Aug -1.4 19:17:40 10° WSW 19:20:07 19° SSW 19:22:08 12° SSE visible
28 Aug -2.1 18:24:52 10° W 18:27:50 29° SSW 18:30:51 10° SSE visible
